This demonstration page uses our WeatherBlox Daily Observations layout. Learn more.

Hourly Observations for June 2, 2019

Temp ( °F °C ) Dew Point ( °F °C ) Humidity (%) Winds ( mph kmh ) Pressure ( in mb ) Visibility ( mi km ) Precip ( " mm )
12:15 am 00:15 Clear 70 21 63 17 78 78 NNE 9 15 29.85 1011 10 16.09344 0 0
12:35 am 00:35 Mostly Cloudy 72 22 63 17 73 73 NNE 12 19 29.85 1011 10 16.09344 0 0
12:55 am 00:55 Mostly Cloudy 72 22 61 16 69 69 NE 10 17 29.85 1011 10 16.09344 0 0
1:15 am 01:15 Mostly Cloudy 70 21 61 16 73 73 NNE 8 13 29.85 1011 10 16.09344 0 0
1:35 am 01:35 Mostly Cloudy 70 21 61 16 73 73 NE 5 7 29.85 1011 10 16.09344 0 0
1:55 am 01:55 Partly Cloudy 68 20 61 16 78 78 Calm 29.83 1010 10 16.09344 0 0
2:15 am 02:15 Clear 68 20 61 16 78 78 E 3 6 29.83 1010 10 16.09344 0 0
2:35 am 02:35 Clear 66 19 61 16 83 83 Calm 29.83 1010 10 16.09344 0 0
2:55 am 02:55 Clear 66 19 61 16 83 83 Calm 29.83 1010 10 16.09344 0 0
3:15 am 03:15 Clear 64 18 61 16 88 88 Calm 29.8 1009 10 16.09344 0 0
3:35 am 03:35 Partly Cloudy 63 17 61 16 94 94 NNW 3 6 29.83 1010 10 16.09344 0 0
3:55 am 03:55 Partly Cloudy 63 17 61 16 94 94 Calm 29.8 1009 10 16.09344 0 0
4:15 am 04:15 Clear 63 17 61 16 94 94 WSW 3 6 29.8 1009 10 16.09344 0 0
4:35 am 04:35 Clear 61 16 61 16 100 100 Calm 29.8 1009 10 16.09344 0 0
4:55 am 04:55 Clear 61 16 61 16 100 100 Calm 29.8 1009 10 16.09344 0 0
5:15 am 05:15 Clear 61 16 59 15 94 94 SW 3 6 29.8 1009 10 16.09344 0 0
5:35 am 05:35 Clear 59 15 59 15 100 100 WNW 3 6 29.8 1009 10 16.09344 0 0
5:55 am 05:55 Sunny 61 16 61 16 100 100 Calm 29.77 1008 10 16.09344 0 0
6:15 am 06:15 Sunny 61 16 59 15 94 94 W 5 7 29.8 1009 10 16.09344 0 0
6:35 am 06:35 Sunny 61 16 61 16 100 100 Calm 29.77 1008 10 16.09344 0 0
6:55 am 06:55 Sunny 61 16 61 16 100 100 W 3 6 29.8 1009 10 16.09344 0 0
7:15 am 07:15 Sunny 63 17 61 16 94 94 W 5 7 29.8 1009 10 16.09344 0 0
7:35 am 07:35 Sunny 64 18 63 17 94 94 WNW 3 6 29.8 1009 10 16.09344 0 0
7:55 am 07:55 Sunny 68 20 63 17 83 83 WNW 3 6 29.8 1009 10 16.09344 0 0
8:15 am 08:15 Sunny 70 21 63 17 78 78 Calm 29.8 1009 10 16.09344 0 0
8:35 am 08:35 Sunny 72 22 63 17 73 73 Calm 29.8 1009 10 16.09344 0 0
8:55 am 08:55 Sunny 73 23 63 17 69 69 WSW 5 7 29.8 1009 10 16.09344 0 0
9:15 am 09:15 Sunny 73 23 63 17 69 69 WSW 5 7 29.8 1009 10 16.09344 0 0
9:35 am 09:35 Sunny 75 24 63 17 65 65 W 3 6 29.8 1009 10 16.09344 0 0
9:55 am 09:55 Sunny 77 25 63 17 61 61 WSW 5 7 29.8 1009 10 16.09344 0 0
10:15 am 10:15 Sunny 77 25 64 18 65 65 WSW 5 7 29.8 1009 10 16.09344 0 0
10:35 am 10:35 Sunny 79 26 64 18 61 61 SSW 5 7 29.77 1008 10 16.09344 0 0
10:55 am 10:55 Sunny 79 26 64 18 61 61 WSW 7 11 29.8 1009 10 16.09344 0 0
11:15 am 11:15 Sunny 79 26 64 18 61 61 W 5 7 29.8 1009 10 16.09344 0 0
11:35 am 11:35 Sunny 79 26 64 18 61 61 WSW 7 11 29.8 1009 10 16.09344 0 0
11:55 am 11:55 Sunny 79 26 64 18 61 61 WSW 6 9 29.8 1009 10 16.09344 0 0
12:15 pm 12:15 Sunny 79 26 64 18 61 61 WNW 3 6 29.8 1009 10 16.09344 0 0
12:35 pm 12:35 Sunny 81 27 64 18 58 58 W 6 9 29.8 1009 10 16.09344 0 0
12:55 pm 12:55 Sunny 82 28 64 18 55 55 WSW 9 15 29.74 1007 10 16.09344 0 0
1:15 pm 13:15 Sunny 82 28 64 18 55 55 W 6 9 29.74 1007 10 16.09344 0 0
1:35 pm 13:35 Sunny 82 28 64 18 55 55 SW 9 15 29.74 1007 10 16.09344 0 0
1:55 pm 13:55 Sunny 82 28 64 18 55 55 WSW 7 11 29.74 1007 10 16.09344 0 0
2:15 pm 14:15 Partly Cloudy 82 28 64 18 55 55 SSW 6 9 29.74 1007 10 16.09344 0 0
2:35 pm 14:35 Partly Cloudy 82 28 64 18 55 55 SW 6 9 29.74 1007 10 16.09344 0 0
2:55 pm 14:55 Mostly Cloudy 82 28 64 18 55 55 SW 7 11 29.71 1006 10 16.09344 0 0
3:15 pm 15:15 Mostly Cloudy with Nearby Thunderstorms 82 28 66 19 58 58 WSW 5 7 29.71 1006 10 16.09344 0 0
3:35 pm 15:35 Partly Cloudy 82 28 64 18 55 55 SW 5 7 29.71 1006 10 16.09344 0 0
3:55 pm 15:55 Mostly Cloudy 82 28 66 19 58 58 Calm 29.68 1005 10 16.09344 0 0
4:15 pm 16:15 Mostly Cloudy 81 27 64 18 58 58 SSW 5 7 29.71 1006 10 16.09344 0 0
4:35 pm 16:35 Mostly Cloudy with Nearby Thunderstorms 79 26 68 20 70 70 NE 3 6 29.74 1007 10 16.09344 0 0
4:55 pm 16:55 Partly Cloudy with Thunderstorms 79 26 68 20 70 70 ENE 5 7 29.74 1007 10 16.09344 0 0
5:15 pm 17:15 Partly Cloudy with Thunderstorms 79 26 68 20 70 70 WSW 12 19 29.74 1007 10 16.09344 0 0
5:35 pm 17:35 Cloudy with Nearby Thunderstorms 72 22 66 19 83 83 SW 12 19 29.74 1007 10 16.09344 0 0
5:55 pm 17:55 Cloudy with Thunderstorms 70 21 66 19 88 88 W 28 44 29.77 1008 4 6.437376 0 0
6:15 pm 18:15 Cloudy with Thunderstorms 68 20 66 19 94 94 W 5 7 29.77 1008 10 16.09344 0 0
6:35 pm 18:35 Cloudy with Nearby Thunderstorms 68 20 68 20 100 100 SSW 7 11 29.77 1008 10 16.09344 0 0
6:55 pm 18:55 Mostly Cloudy with Nearby Thunderstorms 70 21 68 20 94 94 S 6 9 29.74 1007 10 16.09344 0 0
7:15 pm 19:15 Mostly Cloudy 68 20 68 20 100 100 SW 6 9 29.74 1007 10 16.09344 0 0
7:35 pm 19:35 Mostly Cloudy 68 20 68 20 100 100 Calm 29.77 1008 10 16.09344 0 0
7:55 pm 19:55 Partly Cloudy 68 20 66 19 94 94 Calm 29.77 1008 10 16.09344 0 0
8:15 pm 20:15 Partly Cloudy 68 20 68 20 100 100 Calm 29.77 1008 10 16.09344 0 0
8:35 pm 20:35 Partly Cloudy 66 19 66 19 100 100 SSW 3 6 29.77 1008 10 16.09344 0 0
8:55 pm 20:55 Clear 66 19 66 19 100 100 SSW 6 9 29.8 1009 10 16.09344 0 0
9:15 pm 21:15 Clear 64 18 64 18 100 100 SE 3 6 29.8 1009 10 16.09344 0 0
9:35 pm 21:35 Clear 64 18 64 18 100 100 W 5 7 29.8 1009 10 16.09344 0 0
9:55 pm 21:55 Clear 64 18 64 18 100 100 Calm 29.83 1010 10 16.09344 0 0
10:15 pm 22:15 Clear 64 18 64 18 100 100 NW 7 11 29.83 1010 10 16.09344 0 0
10:35 pm 22:35 Partly Cloudy 66 19 63 17 88 88 WNW 8 13 29.83 1010 10 16.09344 0 0
10:55 pm 22:55 Partly Cloudy 68 20 63 17 83 83 NNW 8 13 29.83 1010 10 16.09344 0 0
11:15 pm 23:15 Partly Cloudy 68 20 63 17 83 83 NNW 7 11 29.85 1011 10 16.09344 0 0
11:35 pm 23:35 Mostly Cloudy 66 19 63 17 88 88 NNW 7 11 29.85 1011 10 16.09344 0 0
11:55 pm 23:55 Mostly Cloudy 68 20 61 16 78 78 N 12 19 29.85 1011 10 16.09344 0 0

Powered by AerisWeather